COSMOS 2473

Last updated on Tue Mar 09 2021 06:36:23 GMT+0000 (Coordinated Universal Time)

1 37806U 11048A 21067.92244241 -.00000182 00000-0 00000-0 0 9994 2 37806 0.6875 96.6745 0001397 315.2180 66.6241 1.00253665 34751

Satellite not in orbit

COSMOS 2473